#timestamp,LO_Frequency,Hit,StdDev 
1514131215.9,286047000.2,N
1514131235.7,286046998.7,N
1514131255.6,286046996.8,N
1514131275.4,286047002.2,N
1514131295.2,286047006.5,N
1514131315.0,286047004.7,N
1514131316.0,286047004.7,N
1514131335.8,286047003.8,N
1514131355.6,286047007.6,N
1514131375.4,286047002.3,N
1514131395.3,286047000.1,N
1514131415.1,286046998.4,N
1514131435.8,286046998.3,N
1514131455.7,286046999.3,N
1514131475.5,286046998.9,N
1514131495.3,286047000.7,N
1514131515.2,286046994.9,N
1514131535.9,286046990.3,N
1514131555.7,286046989.8,N
1514131575.6,286046987.5,N
1514131595.4,286046988.0,N
1514131615.2,286046985.6,N
1514131635.0,286046989.0,N
1514131636.0,286046989.0,N
1514131655.8,286046990.2,N
1514131675.6,286046994.4,N
1514131695.4,286046988.7,N
1514131715.3,286046987.5,N
1514131735.1,286046993.1,N
1514131755.8,286046994.7,N
1514131775.7,286046992.6,N
1514131795.5,286046988.3,N
1514131815.3,286046988.6,N
1514131835.2,286046993.1,N
1514131855.9,286046988.1,N
1514131875.7,286046988.9,N
1514131895.6,286046989.8,N
1514131915.4,286046990.9,N
1514131935.2,286046992.9,N
1514131955.1,286046994.4,N
1514131956.0,286046994.4,N
1514131975.8,286046991.1,N
1514131995.6,286046995.1,N
1514132015.4,286046996.6,N
1514132035.3,286046996.7,N
1514132055.1,286046994.0,N
1514132075.8,286046997.7,N
1514132095.7,286047002.8,N
1514132115.5,286046996.6,N
1514132135.3,286046996.4,N
1514132155.2,286046998.2,N
1514132175.9,286047005.7,N
1514132195.7,286047007.1,N
1514132215.6,286047005.1,N
1514132235.4,286046999.8,N
1514132255.2,286047000.0,N
1514132275.1,286046998.5,N
1514132276.0,286046998.5,N
1514132295.8,286046997.8,N
1514132315.6,286046996.1,N
1514132335.5,286046991.7,N
1514132355.3,286046991.3,N
1514132375.1,286046993.1,N
1514132395.9,286046990.4,N
1514132415.7,286046993.0,N
1514132435.5,286046998.4,N
1514132455.3,286047002.6,N
1514132475.2,286047002.9,N
1514132495.0,286047004.4,N
1514132495.9,286047004.4,N
1514132515.7,286046998.7,N
1514132535.6,286047001.2,N
1514132555.4,286046999.5,N
1514132575.2,286047002.4,N
1514132595.1,286047004.1,N
1514132596.0,286047004.1,N
1514132615.8,286047002.3,N
1514132635.6,286047000.4,N
1514132655.5,286047003.5,N
1514132675.3,286047006.9,N
1514132695.1,286047010.4,N
1514132715.9,286047012.2,N
1514132735.7,286047010.4,N
1514132755.5,286047006.8,N
1514132775.3,286047002.1,N
1514132795.2,286047000.3,N
1514132815.0,286047002.6,N
1514132815.9,286047002.6,N
1514132835.7,286047004.5,N
1514132855.6,286047006.2,N
1514132875.4,286047005.9,N
1514132895.2,286047005.8,N
1514132915.1,286047005.5,N
1514132916.0,286047005.5,N
1514132935.8,286047004.8,N
1514132955.6,286047002.8,N
1514132975.5,286047001.4,N
1514132995.3,286047004.6,N
1514133015.1,286047003.3,N
1514133035.9,286047004.8,N
1514133055.7,286047008.5,N
1514133075.5,286047008.0,N
1514133095.4,286047009.7,Y
1514133115.2,286047008.9,P
1514133135.0,286047012.3,P
1514133135.9,286047012.3,P
1514133155.8,286047014.9,Y
1514133175.6,286047007.8,P
1514133195.4,286047008.4,P
1514133215.3,286047014.0,P
1514133235.1,286047011.6,Y
1514133236.0,286047011.6,P
1514133255.8,286047002.9,P
1514133275.7,286047010.1,N
1514133295.5,286047008.1,N
1514133315.3,286047011.9,Y
1514133335.2,286047003.7,P
1514133355.9,286047003.2,N
1514133375.7,286047000.5,N
1514133395.6,286047000.9,N
1514133415.4,286047002.0,N
1514133435.2,286047003.6,N
1514133455.0,286047002.3,N
1514133456.0,286047002.3,N
1514133475.8,286047004.4,N
1514133495.6,286047005.6,N
1514133515.4,286047004.8,N
1514133535.3,286047001.7,N
1514133555.1,286047005.0,N
1514133575.8,286047005.8,N
1514133595.7,286047002.8,N
1514133615.5,286047002.5,N
1514133635.3,286046997.6,N
1514133655.2,286046992.5,Y
1514133675.9,286046993.2,P
1514133695.7,286046991.6,N
1514133715.6,286046987.9,N
1514133735.4,286046981.3,Y
1514133755.2,286046989.6,P
1514133775.1,286046990.8,P
1514133776.0,286046990.8,P
1514133795.8,286046987.2,Y
1514133815.6,286047002.6,P
1514133835.5,286046999.5,N
1514133855.3,286046995.8,N
1514133875.1,286046994.3,N
1514133895.9,286046993.7,N
1514133915.7,286046996.1,N
1514133935.5,286046994.1,N
1514133955.4,286046992.3,N
1514133975.2,286046989.4,Y
1514133995.0,286046992.6,P
1514133995.9,286046992.6,P
1514134015.8,286046992.9,P
1514134035.6,286046989.3,Y
1514134055.4,286046995.4,P
1514134075.3,286046997.2,N
1514134095.1,286046999.0,N
1514134096.0,286046999.0,N
1514134115.8,286046997.9,N
1514134135.7,286046994.6,N
1514134155.5,286046994.8,N
1514134175.3,286046994.1,N
1514134195.2,286046992.8,Y
1514134215.9,286046992.8,P
1514134235.7,286046991.0,P
1514134255.6,286046994.4,N
1514134275.4,286047000.7,N
1514134295.2,286047006.0,N
1514134315.0,286047004.9,N
1514134315.9,286047004.9,N
1514134335.8,286047003.4,N
1514134355.6,286047002.0,N
1514134375.4,286047003.7,N
1514134395.3,286047003.0,N
1514134415.1,286047004.0,N
1514134435.8,286047004.1,N
1514134455.7,286047003.2,N
1514134475.5,286047003.2,N
1514134495.3,286047000.3,N
1514134515.2,286046998.3,N
1514134535.9,286047002.7,N
1514134555.7,286047000.6,N
1514134575.6,286046995.3,N
1514134595.4,286046993.8,N
1514134615.2,286046986.9,N
1514134635.1,286046983.9,Y
1514134636.0,286046983.9,P
1514134655.8,286046982.7,N
1514134675.6,286046982.6,N
1514134695.4,286046985.0,N
1514134715.3,286046985.1,N
1514134735.1,286046986.5,N
1514134755.8,286046985.2,N
1514134775.7,286046986.3,N
1514134795.5,286046984.0,Y
